timestamp,surface_pressure_avg,surface_temp_avg,battery_voltage,lat,long
2019-11-29 00:09:01+00:00,354.1613,5.9,12.73,47.84626,-54.09684
2019-11-29 00:19:01+00:00,359.7095,5.9,12.73,47.84626,-54.09684
2019-11-29 00:29:01+00:00,350.3547,5.9,12.73,47.84626,-54.09684
2019-11-29 00:39:01+00:00,353.2863,5.95,12.73,47.84626,-54.09684
2019-11-29 00:49:01+00:00,366.5245,5.96,12.73,47.84626,-54.09684
2019-11-29 00:59:01+00:00,369.3163,5.96,12.73,47.84626,-54.09684
2019-11-29 01:09:01+00:00,367.608,5.9,12.73,47.84626,-54.09684
2019-11-29 01:19:01+00:00,365.3196,5.9,12.73,47.84626,-54.09684
2019-11-29 01:29:01+00:00,362.6729,5.99,12.73,47.84626,-54.09684
2019-11-29 01:39:01+00:00,361.3279,5.98,12.73,47.84626,-54.09684
2019-11-29 01:49:01+00:00,359.9046,5.91,12.73,47.84626,-54.09684
2019-11-29 01:59:01+00:00,360.0113,6.0,12.73,47.84626,-54.09684
2019-11-29 02:09:01+00:00,352.9413,6.0,12.73,47.84626,-54.09684
2019-11-29 02:19:01+00:00,348.3829,6.0,12.73,47.84626,-54.09684
2019-11-29 02:29:01+00:00,350.3146,6.0,12.73,47.84626,-54.09684
2019-11-29 02:39:01+00:00,346.8196,6.0,12.73,47.84626,-54.09684
2019-11-29 02:49:01+00:00,344.1046,5.98,12.73,47.84626,-54.09684
2019-11-29 02:59:01+00:00,343.3996,5.9,12.73,47.84626,-54.09684
2019-11-29 03:09:01+00:00,341.0347,5.84,12.73,47.84626,-54.09684
2019-11-29 03:19:01+00:00,332.4513,5.93,12.65,47.84626,-54.09684
2019-11-29 03:29:01+00:00,322.598,5.9,12.65,47.84626,-54.09684
2019-11-29 03:39:01+00:00,313.6414,5.8,12.65,47.84626,-54.09684
2019-11-29 03:49:01+00:00,303.5847,5.7,12.65,47.84626,-54.09684
2019-11-29 03:59:01+00:00,300.7164,5.69,12.65,47.84626,-54.09684
2019-11-29 04:09:01+00:00,293.2147,5.68,12.65,47.84626,-54.09684
2019-11-29 04:19:01+00:00,283.7463,5.65,12.65,47.84626,-54.09684
2019-11-29 04:29:01+00:00,273.688,5.6,12.65,47.84626,-54.09684
2019-11-29 04:39:01+00:00,265.9447,5.52,12.65,47.84626,-54.09684
2019-11-29 04:49:01+00:00,255.7064,5.65,12.65,47.84626,-54.09684
2019-11-29 04:59:01+00:00,251.9615,5.66,12.65,47.84626,-54.09684
2019-11-29 05:09:01+00:00,243.9564,5.67,12.65,47.84626,-54.09684
2019-11-29 05:19:01+00:00,237.0981,5.61,12.65,47.84626,-54.09684
2019-11-29 05:29:01+00:00,230.1831,5.6,12.65,47.84626,-54.09684
2019-11-29 05:39:01+00:00,219.8148,5.6,12.65,47.84626,-54.09684
2019-11-29 05:49:01+00:00,210.6331,5.6,12.65,47.84626,-54.09684
2019-11-29 05:59:01+00:00,210.6381,5.6,12.65,47.84626,-54.09684
2019-11-29 06:09:01+00:00,209.3598,5.59,12.65,47.84626,-54.09684
2019-11-29 06:19:01+00:00,204.118,5.5,12.65,47.84626,-54.09684
2019-11-29 06:29:01+00:00,207.0848,5.5,12.65,47.84626,-54.09684
2019-11-29 06:39:01+00:00,207.6031,5.55,12.65,47.84626,-54.09684
2019-11-29 06:49:01+00:00,200.5848,5.56,12.65,47.84626,-54.09684
2019-11-29 06:59:01+00:00,201.5598,5.55,12.65,47.84626,-54.09684
2019-11-29 07:09:01+00:00,207.9265,5.72,12.65,47.84626,-54.09684
2019-11-29 07:19:01+00:00,209.6747,5.79,12.65,47.84626,-54.09684
2019-11-29 07:29:01+00:00,211.1097,5.7,12.65,47.84626,-54.09684
2019-11-29 07:39:01+00:00,215.7948,5.7,12.65,47.84626,-54.09684
2019-11-29 07:49:01+00:00,219.8831,5.69,12.65,47.84626,-54.09684
2019-11-29 07:59:01+00:00,220.1715,5.6,12.65,47.84626,-54.09684
2019-11-29 08:09:01+00:00,224.4831,5.4,12.65,47.84626,-54.09684
2019-11-29 08:19:01+00:00,231.2747,5.46,12.65,47.84626,-54.09684
2019-11-29 08:29:01+00:00,231.3014,5.4,12.65,47.84626,-54.09684
2019-11-29 08:39:01+00:00,234.6714,5.4,12.65,47.84626,-54.09684
2019-11-29 08:49:01+00:00,238.3097,5.4,12.65,47.84626,-54.09684
2019-11-29 08:59:01+00:00,239.568,5.34,12.65,47.84626,-54.09684
2019-11-29 09:09:01+00:00,241.5881,5.2,12.65,47.84626,-54.09684
2019-11-29 09:19:01+00:00,246.3714,5.1,12.65,47.84626,-54.09684
2019-11-29 09:29:01+00:00,246.2948,5.2,12.65,47.84626,-54.09684
2019-11-29 09:39:01+00:00,249.9764,5.1,12.65,47.84626,-54.09684
2019-11-29 09:49:01+00:00,257.9097,5.67,12.65,47.84626,-54.09684
2019-11-29 09:59:01+00:00,267.5814,5.7,12.65,47.84626,-54.09684
2019-11-29 10:09:01+00:00,275.533,5.2,12.65,47.84626,-54.09684
2019-11-29 10:19:01+00:00,292.5347,5.8,12.65,47.84626,-54.09684
2019-11-29 10:29:01+00:00,303.878,5.8,12.65,47.84626,-54.09684
2019-11-29 10:39:01+00:00,303.5397,5.6,12.65,47.84626,-54.09684
2019-11-29 10:49:01+00:00,305.5381,5.89,12.65,47.84626,-54.09684
2019-11-29 10:59:01+00:00,319.2146,5.9,12.65,47.84626,-54.09684
2019-11-29 11:09:01+00:00,331.8513,5.9,12.65,47.84626,-54.09684
2019-11-29 11:19:01+00:00,337.8396,5.81,12.65,47.84626,-54.09684
2019-11-29 11:29:01+00:00,343.6496,5.9,12.65,47.84626,-54.09684
2019-11-29 11:39:01+00:00,356.0863,5.9,12.65,47.84626,-54.09684
2019-11-29 11:49:01+00:00,364.773,5.9,12.65,47.84626,-54.09684
2019-11-29 11:59:01+00:00,365.8546,5.9,12.65,47.84626,-54.09684
2019-11-29 12:09:01+00:00,366.463,6.0,12.65,47.84626,-54.09684
2019-11-29 12:19:01+00:00,379.6079,6.0,12.65,47.84626,-54.09684
2019-11-29 12:29:01+00:00,385.0462,6.0,12.65,47.84626,-54.09684
2019-11-29 12:39:01+00:00,379.1013,5.91,12.65,47.84626,-54.09684
2019-11-29 12:49:01+00:00,385.9146,5.9,12.65,47.84626,-54.09684
2019-11-29 12:59:01+00:00,395.0629,5.9,12.65,47.84626,-54.09684
2019-11-29 13:09:01+00:00,389.0696,5.92,12.65,47.84626,-54.09684
2019-11-29 13:19:01+00:00,387.2029,5.94,12.65,47.84626,-54.09684
2019-11-29 13:29:01+00:00,391.6846,5.9,12.65,47.84626,-54.09684
2019-11-29 13:39:01+00:00,398.6079,5.9,12.65,47.84626,-54.09684
2019-11-29 13:49:01+00:00,393.8962,5.9,12.65,47.84626,-54.09684
2019-11-29 13:59:01+00:00,391.4746,5.9,12.65,47.84626,-54.09684
2019-11-29 14:09:01+00:00,401.7612,5.9,12.65,47.84626,-54.09684
2019-11-29 14:19:01+00:00,401.7796,5.9,12.65,47.84626,-54.09684
2019-11-29 14:29:01+00:00,392.8629,5.85,12.65,47.84626,-54.09684
2019-11-29 14:39:01+00:00,390.1497,5.8,12.65,47.84626,-54.09684
2019-11-29 14:49:01+00:00,394.3413,5.8,12.65,47.84626,-54.09684
2019-11-29 14:59:01+00:00,389.8297,5.8,12.65,47.84626,-54.09684
2019-11-29 15:09:01+00:00,375.25800000000004,5.71,12.65,47.84626,-54.09684
2019-11-29 15:19:01+00:00,373.2613,5.7,12.65,47.84626,-54.09684
2019-11-29 15:29:01+00:00,369.5212,5.7,12.65,47.84626,-54.09684
2019-11-29 15:39:01+00:00,355.4896,5.7,12.65,47.84626,-54.09684
2019-11-29 15:49:01+00:00,351.1329,5.7,12.65,47.84626,-54.09684
2019-11-29 15:59:01+00:00,342.7646,5.7,12.65,47.84626,-54.09684
2019-11-29 16:09:01+00:00,336.4646,5.6,12.65,47.84626,-54.09684
2019-11-29 16:19:01+00:00,330.2629,5.74,12.81,47.84626,-54.09684
2019-11-29 16:29:01+00:00,330.9363,5.7,12.81,47.84626,-54.09684
2019-11-29 16:39:01+00:00,313.8447,5.66,12.81,47.84626,-54.09684
2019-11-29 16:49:01+00:00,300.2396,5.6,12.81,47.84626,-54.09684
2019-11-29 16:59:01+00:00,295.3963,5.62,12.81,47.84626,-54.09684
2019-11-29 17:09:01+00:00,287.3698,5.6,12.81,47.84626,-54.09684
2019-11-29 17:19:01+00:00,268.1064,5.05,12.97,47.84626,-54.09684
2019-11-29 17:29:01+00:00,251.2781,5.22,12.97,47.84626,-54.09684
2019-11-29 17:39:01+00:00,248.9181,5.43,12.97,47.84626,-54.09684
2019-11-29 17:49:01+00:00,241.9281,5.1,12.97,47.84626,-54.09684
2019-11-29 17:59:01+00:00,229.7947,5.21,12.97,47.84626,-54.09684
2019-11-29 18:09:01+00:00,225.2481,5.5,12.97,47.84626,-54.09684
2019-11-29 18:19:01+00:00,223.1731,5.3,12.81,47.84626,-54.09684
2019-11-29 18:29:01+00:00,212.9081,5.2,12.81,47.84626,-54.09684
2019-11-29 18:39:01+00:00,204.9598,5.34,12.81,47.84626,-54.09684
2019-11-29 18:49:01+00:00,207.7298,5.42,12.81,47.84626,-54.09684
2019-11-29 18:59:01+00:00,203.3198,5.5,12.81,47.84626,-54.09684
2019-11-29 19:09:01+00:00,194.2015,5.1,12.81,47.84626,-54.09684
2019-11-29 19:19:01+00:00,193.9198,5.1,12.65,47.84626,-54.09684
2019-11-29 19:29:01+00:00,201.5614,5.19,12.65,47.84626,-54.09684
2019-11-29 19:39:01+00:00,204.1231,5.2,12.65,47.84626,-54.09684
2019-11-29 19:49:01+00:00,201.5564,5.19,12.65,47.84626,-54.09684
2019-11-29 19:59:01+00:00,206.0514,5.2,12.65,47.84626,-54.09684
2019-11-29 20:09:01+00:00,215.2298,5.38,12.65,47.84626,-54.09684
2019-11-29 20:19:01+00:00,217.1314,5.4,12.65,47.84626,-54.09684
2019-11-29 20:29:01+00:00,221.2648,5.3,12.65,47.84626,-54.09684
2019-11-29 20:39:01+00:00,226.8447,5.29,12.65,47.84626,-54.09684
2019-11-29 20:49:01+00:00,227.4381,5.5,12.65,47.84626,-54.09684
2019-11-29 20:59:01+00:00,226.2381,5.5,12.65,47.84626,-54.09684
2019-11-29 21:09:01+00:00,234.1131,5.4,12.65,47.84626,-54.09684
2019-11-29 21:19:01+00:00,241.8798,5.4,12.65,47.84626,-54.09684
2019-11-29 21:29:01+00:00,244.0448,5.2,12.65,47.84626,-54.09684
2019-11-29 21:39:01+00:00,246.0231,5.2,12.65,47.84626,-54.09684
2019-11-29 21:49:01+00:00,253.0614,5.2,12.65,47.84626,-54.09684
2019-11-29 21:59:01+00:00,255.8914,5.24,12.65,47.84626,-54.09684
2019-11-29 22:09:01+00:00,262.0131,5.32,12.65,47.84626,-54.09684
2019-11-29 22:19:01+00:00,270.1898,5.35,12.65,47.84626,-54.09684
2019-11-29 22:29:01+00:00,275.9364,5.1,12.65,47.84626,-54.09684
2019-11-29 22:39:01+00:00,275.8831,5.1,12.65,47.84626,-54.09684
2019-11-29 22:49:01+00:00,281.3614,5.49,12.65,47.84626,-54.09684
2019-11-29 22:59:01+00:00,290.8414,5.6,12.65,47.84626,-54.09684
2019-11-29 23:09:01+00:00,299.9097,5.3,12.65,47.84626,-54.09684
2019-11-29 23:19:01+00:00,304.3247,5.39,12.65,47.84626,-54.09684
2019-11-29 23:29:01+00:00,312.018,5.63,12.65,47.84626,-54.09684
2019-11-29 23:39:01+00:00,323.073,5.7,12.65,47.84626,-54.09684
2019-11-29 23:49:01+00:00,331.5630000000001,5.7,12.65,47.84626,-54.09684
2019-11-29 23:59:01+00:00,326.4514,5.68,12.65,47.84626,-54.09684
